TimeMDT,TemperatureF,Dew PointF,Humidity,Sea Level PressureIn,VisibilityMPH,Wind Direction,Wind SpeedMPH,Gust SpeedMPH,PrecipitationIn,Events,Conditions,WindDirDegrees,DateUTC
12:53 AM,44.1,36.0,73,30.04,8.0,Calm,Calm,-,N/A,,Clear,0,2013-10-07 06:53:00
1:53 AM,41.0,36.0,82,30.04,10.0,Calm,Calm,-,N/A,,Clear,0,2013-10-07 07:53:00
2:53 AM,43.0,36.0,76,30.03,10.0,SW,3.5,-,N/A,,Clear,220,2013-10-07 08:53:00
3:53 AM,42.1,36.0,79,30.02,10.0,Calm,Calm,-,N/A,,Clear,0,2013-10-07 09:53:00
4:53 AM,39.0,35.1,86,30.01,10.0,ENE,4.6,-,N/A,,Clear,60,2013-10-07 10:53:00
5:53 AM,36.0,32.0,86,30.03,10.0,Calm,Calm,-,N/A,,Clear,0,2013-10-07 11:53:00
6:53 AM,35.1,32.0,89,30.03,10.0,Calm,Calm,-,N/A,,Clear,0,2013-10-07 12:53:00
7:53 AM,34.0,32.0,92,30.06,10.0,NW,3.5,-,N/A,,Clear,310,2013-10-07 13:53:00
8:53 AM,37.9,34.0,86,30.06,10.0,Calm,Calm,-,N/A,,Clear,0,2013-10-07 14:53:00
9:53 AM,46.9,37.0,68,30.06,10.0,Calm,Calm,-,N/A,,Clear,0,2013-10-07 15:53:00
10:53 AM,52.0,37.9,59,30.05,10.0,Calm,Calm,-,N/A,,Clear,0,2013-10-07 16:53:00
11:53 AM,57.0,37.0,47,30.03,10.0,Calm,Calm,-,N/A,,Clear,0,2013-10-07 17:53:00
12:53 PM,62.1,35.1,37,30.00,10.0,Calm,Calm,-,N/A,,Clear,0,2013-10-07 18:53:00
1:53 PM,64.9,34.0,32,29.97,10.0,Calm,Calm,-,N/A,,Clear,0,2013-10-07 19:53:00
2:53 PM,66.9,35.1,31,29.94,10.0,Calm,Calm,-,N/A,,Clear,0,2013-10-07 20:53:00
3:53 PM,70.0,32.0,25,29.91,10.0,Variable,3.5,-,N/A,,Clear,0,2013-10-07 21:53:00
4:53 PM,69.1,33.1,26,29.90,10.0,South,3.5,-,N/A,,Clear,180,2013-10-07 22:53:00
5:53 PM,68.0,34.0,28,29.89,9.0,WSW,4.6,-,N/A,,Partly Cloudy,250,2013-10-07 23:53:00
6:53 PM,66.0,30.0,26,29.89,10.0,SW,4.6,-,N/A,,Overcast,220,2013-10-08 00:53:00
7:53 PM,61.0,34.0,36,29.91,10.0,NW,11.5,-,N/A,,Clear,310,2013-10-08 01:53:00
8:53 PM,57.0,37.0,47,29.94,10.0,NW,18.4,26.5,N/A,,Clear,320,2013-10-08 02:53:00
9:53 PM,55.0,36.0,49,29.95,10.0,NNW,18.4,26.5,N/A,,Clear,330,2013-10-08 03:53:00
10:53 PM,54.0,36.0,51,29.98,10.0,NNW,6.9,-,N/A,,Clear,330,2013-10-08 04:53:00
11:53 PM,52.0,36.0,54,29.99,10.0,WNW,15.0,-,N/A,,Clear,300,2013-10-08 05:53:00